When you browse on this site, cookies collect data to enhance your experience and personalize the content and advertising you see.
Visit our Privacy Policy to learn more. By continuing to use the site, you agree to this use of cookies and data.
  • In Hungary
  • List of Countries
  • For 7 days
  • Water Temperature
  • Weather Map
  • News
  • Weather Widgets
  • user-avatar
    Login

    Hourly Weather Makoua

    Today, 21 November, Thursday

    Time Temperature Precipitation Wind Pressure Humidity
    00:00 +22°C° 0.2 mm 0 mps 724 mmHg 95%
    01:00 +23°C° 0 mm 1 mps 724 mmHg 97%
    02:00 +23°C° 0 mm 1 mps 724 mmHg 97%
    03:00 +23°C° 0 mm 1 mps 724 mmHg 97%
    04:00 +23°C° 0 mm 1 mps 724 mmHg 98%
    05:00 +23°C° 0.5 mm 1 mps 725 mmHg 97%
    06:00 +24°C° 0.5 mm 1 mps 726 mmHg 97%
    07:00 +24°C° 0 mm 1 mps 726 mmHg 97%
    08:00 +24°C° 0.9 mm 1 mps 726 mmHg 95%
    09:00 +25°C° 0.9 mm 1 mps 727 mmHg 93%
    10:00 +25°C° 0.9 mm 2 mps 727 mmHg 90%
    11:00 +27°C° 0.1 mm 2 mps 726 mmHg 84%
    12:00 +28°C° 0.1 mm 2 mps 726 mmHg 78%
    13:00 +29°C° 0.1 mm 2 mps 725 mmHg 72%
    14:00 +28°C° 0.6 mm 2 mps 725 mmHg 76%
    15:00 +28°C° 0.6 mm 2 mps 724 mmHg 81%
    16:00 +27°C° 0.6 mm 1 mps 723 mmHg 86%
    17:00 +26°C° 0.1 mm 1 mps 724 mmHg 89%
    18:00 +26°C° 0.1 mm 1 mps 725 mmHg 92%
    19:00 +25°C° 0.1 mm 1 mps 725 mmHg 95%
    20:00 +24°C° 0 mm 1 mps 725 mmHg 96%
    21:00 +24°C° 0 mm 1 mps 725 mmHg 97%
    22:00 +24°C° 0 mm 1 mps 725 mmHg 97%
    23:00 +24°C° 0 mm 1 mps 725 mmHg 96%

    Tomorrow, 22 November, Friday

    Time Temperature Precipitation Wind Pressure Humidity
    00:00 +24°C° 0 mm 1 mps 725 mmHg 95%
    01:00 +24°C° 0 mm 2 mps 725 mmHg 94%
    02:00 +24°C° 0 mm 2 mps 725 mmHg 94%
    03:00 +24°C° 0 mm 1 mps 725 mmHg 94%
    04:00 +24°C° 0 mm 1 mps 725 mmHg 94%
    05:00 +24°C° 0 mm 1 mps 725 mmHg 94%
    06:00 +24°C° 0 mm 1 mps 726 mmHg 94%
    07:00 +22°C° 0 mm 0 mps 727 mmHg 94%
    08:00 +25°C° 0.5 mm 1 mps 727 mmHg 92%
    09:00 +25°C° 0.5 mm 1 mps 727 mmHg 90%
    10:00 +26°C° 0.5 mm 1 mps 727 mmHg 88%
    11:00 +27°C° 0.7 mm 1 mps 727 mmHg 84%
    12:00 +28°C° 0.7 mm 1 mps 726 mmHg 79%
    13:00 +28°C° 0.7 mm 2 mps 726 mmHg 75%
    14:00 +28°C° 0.3 mm 1 mps 725 mmHg 78%
    15:00 +28°C° 0.3 mm 1 mps 724 mmHg 81%
    16:00 +27°C° 0.3 mm 1 mps 724 mmHg 83%
    17:00 +26°C° 0.3 mm 1 mps 725 mmHg 87%
    18:00 +25°C° 0.3 mm 1 mps 725 mmHg 90%
    19:00 +22°C° 0.3 mm 0 mps 726 mmHg 94%
    20:00 +22°C° 0 mm 0 mps 726 mmHg 94%
    21:00 +21°C° 0 mm 0 mps 726 mmHg 95%
    22:00 +21°C° 0 mm 0 mps 726 mmHg 95%
    23:00 +21°C° 0 mm 0 mps 726 mmHg 96%

    Day after tomorrow, 23 November, Saturday

    Time Temperature Precipitation Wind Pressure Humidity
    00:00 +23°C° 0 mm 1 mps 726 mmHg 96%
    01:00 +23°C° 0 mm 1 mps 726 mmHg 96%
    02:00 +22°C° 0 mm 1 mps 725 mmHg 96%
    03:00 +22°C° 0 mm 1 mps 725 mmHg 96%
    04:00 +22°C° 0 mm 1 mps 725 mmHg 96%
    05:00 +23°C° 0 mm 1 mps 725 mmHg 94%
    06:00 +23°C° 0 mm 1 mps 726 mmHg 92%
    07:00 +23°C° 0 mm 1 mps 726 mmHg 90%
    08:00 +25°C° 0 mm 1 mps 727 mmHg 81%
    09:00 +28°C° 0 mm 1 mps 727 mmHg 71%
    10:00 +30°C° 0 mm 1 mps 727 mmHg 61%
    11:00 +31°C° 0 mm 1 mps 727 mmHg 58%
    12:00 +32°C° 0 mm 1 mps 726 mmHg 54%
    13:00 +33°C° 0 mm 1 mps 725 mmHg 51%
    14:00 +32°C° 0 mm 1 mps 725 mmHg 53%
    15:00 +32°C° 0 mm 1 mps 724 mmHg 55%
    16:00 +31°C° 0 mm 1 mps 724 mmHg 57%
    17:00 +29°C° 0.1 mm 1 mps 724 mmHg 66%
    18:00 +27°C° 0.1 mm 1 mps 725 mmHg 76%
    19:00 +25°C° 0.1 mm 1 mps 725 mmHg 85%
    20:00 +25°C° 0 mm 1 mps 725 mmHg 86%
    21:00 +22°C° 0 mm 0 mps 726 mmHg 86%
    22:00 +22°C° 0 mm 0 mps 726 mmHg 86%
    23:00 +21°C° 0 mm 0 mps 726 mmHg 86%

    24 November, Sunday

    Time Temperature Precipitation Wind Pressure Humidity
    00:00 +21°C° 0 mm 0 mps 726 mmHg 86%
    01:00 +21°C° 0 mm 0 mps 726 mmHg 86%
    02:00 +21°C° 0 mm 0 mps 725 mmHg 86%
    03:00 +20°C° 0 mm 0 mps 725 mmHg 87%
    04:00 +20°C° 0 mm 0 mps 725 mmHg 87%
    05:00 +21°C° 0 mm 0 mps 725 mmHg 85%
    06:00 +21°C° 0 mm 0 mps 725 mmHg 83%
    07:00 +22°C° 0 mm 0 mps 726 mmHg 82%
    08:00 +24°C° 0 mm 0 mps 726 mmHg 73%
    09:00 +28°C° 0 mm 1 mps 726 mmHg 65%
    10:00 +31°C° 0 mm 1 mps 726 mmHg 56%
    11:00 +32°C° 0 mm 1 mps 726 mmHg 53%
    12:00 +33°C° 0 mm 1 mps 725 mmHg 49%
    13:00 +34°C° 0 mm 1 mps 725 mmHg 45%
    14:00 +34°C° 0 mm 1 mps 724 mmHg 47%
    15:00 +33°C° 0 mm 1 mps 724 mmHg 49%
    16:00 +33°C° 0 mm 1 mps 723 mmHg 51%
    17:00 +29°C° 0 mm 0 mps 723 mmHg 57%
    18:00 +27°C° 0 mm 0 mps 724 mmHg 63%
    19:00 +25°C° 0 mm 0 mps 724 mmHg 69%
    20:00 +25°C° 0 mm 0 mps 724 mmHg 71%
    21:00 +24°C° 0 mm 0 mps 725 mmHg 72%
    22:00 +24°C° 0 mm 0 mps 725 mmHg 74%
    23:00 +24°C° 0 mm 0 mps 725 mmHg 76%

    25 November, Monday

    Time Temperature Precipitation Wind Pressure Humidity
    00:00 +23°C° 0 mm 0 mps 725 mmHg 78%
    01:00 +23°C° 0 mm 0 mps 725 mmHg 79%
    02:00 +22°C° 0 mm 0 mps 724 mmHg 81%
    03:00 +22°C° 0 mm 0 mps 724 mmHg 82%
    04:00 +22°C° 0 mm 0 mps 724 mmHg 84%
    05:00 +22°C° 0 mm 0 mps 725 mmHg 83%
    06:00 +23°C° 0 mm 0 mps 725 mmHg 81%
    07:00 +24°C° 0 mm 0 mps 726 mmHg 80%
    08:00 +25°C° 0 mm 0 mps 726 mmHg 75%
    09:00 +28°C° 0 mm 1 mps 726 mmHg 70%
    10:00 +29°C° 0 mm 1 mps 726 mmHg 66%
    11:00 +31°C° 0 mm 1 mps 725 mmHg 59%
    12:00 +33°C° 0 mm 1 mps 725 mmHg 52%
    13:00 +35°C° 0 mm 1 mps 724 mmHg 45%
    14:00 +34°C° 0.1 mm 2 mps 723 mmHg 52%
    15:00 +32°C° 0.1 mm 2 mps 723 mmHg 58%
    16:00 +31°C° 0.1 mm 2 mps 723 mmHg 64%
    17:00 +29°C° 0.2 mm 1 mps 723 mmHg 71%
    18:00 +28°C° 0.2 mm 1 mps 723 mmHg 77%
    19:00 +24°C° 0.2 mm 0 mps 724 mmHg 84%
    20:00 +24°C° 0 mm 0 mps 724 mmHg 84%
    21:00 +24°C° 0 mm 0 mps 725 mmHg 85%
    22:00 +23°C° 0 mm 0 mps 725 mmHg 85%
    23:00 +23°C° 0.4 mm 0 mps 725 mmHg 88%

    26 November, Tuesday

    Time Temperature Precipitation Wind Pressure Humidity
    00:00 +22°C° 0.4 mm 0 mps 725 mmHg 91%
    01:00 +22°C° 0.4 mm 0 mps 724 mmHg 94%
    02:00 +22°C° 1.1 mm 0 mps 724 mmHg 95%
    03:00 +21°C° 1.1 mm 0 mps 724 mmHg 96%
    04:00 +23°C° 1.1 mm 1 mps 724 mmHg 98%
    05:00 +22°C° 1 mm 0 mps 725 mmHg 97%
    06:00 +22°C° 1 mm 0 mps 725 mmHg 96%
    07:00 +23°C° 1 mm 0 mps 726 mmHg 95%
    08:00 +25°C° 0.8 mm 0 mps 726 mmHg 87%
    09:00 +27°C° 0.8 mm 0 mps 726 mmHg 79%
    10:00 +29°C° 0.8 mm 0 mps 726 mmHg 72%
    11:00 +29°C° 1.4 mm 0 mps 725 mmHg 69%
    12:00 +32°C° 1.4 mm 1 mps 724 mmHg 67%
    13:00 +32°C° 1.4 mm 1 mps 723 mmHg 65%
    14:00 +32°C° 0.3 mm 1 mps 723 mmHg 62%
    15:00 +32°C° 0.3 mm 1 mps 723 mmHg 59%
    16:00 +30°C° 0.3 mm 0 mps 722 mmHg 57%
    17:00 +29°C° 0 mm 0 mps 723 mmHg 64%
    18:00 +27°C° 0 mm 0 mps 723 mmHg 70%
    19:00 +25°C° 0 mm 0 mps 723 mmHg 77%
    20:00 +24°C° 0 mm 0 mps 724 mmHg 79%
    21:00 +26°C° 0 mm 1 mps 724 mmHg 82%
    22:00 +25°C° 0 mm 1 mps 724 mmHg 84%
    23:00 +25°C° 0.2 mm 1 mps 724 mmHg 87%
    Show more